Location: Azul
(36.7830°S, 59.8500°W)
Time: 18:21:54
(UTC-03:00)

AO-109 - Pass Details

Date: 29 October 2021
Orbit: 474 x 522 km, 60.7° (Epoch: 06 December)

Event Time Altitude Azimuth Distance (km) Brightness Sun altitude
Exits shadow 23:00:11 13° 180° (S) 1,616 ? -33.9°
Drops below altitude 10° 23:00:45 10° 174° (S) 1,776 ? -34.0°
Sets 23:03:26 0° 157° (SSE) 2,678 ? -34.2°
